Wind_Speed
21 21 21 22 22 22 22 22 23 21 22 21 21 21 21 21 21 21 21 20 20 20 21 21 22 22 22 22 23 24 25 26 26 26 27 28 29 29 29 30 30 30 30 31
21 21 21 23 23 23 23 23 23 23 22 22 21 21 22 21 21 22 22 21 21 21 22 21 21 21 21 22 23 24 24 25 25 26 27 27 28 28 29 29 28 28 29 29
21 21 22 22 22 22 22 22 23 23 21 21 20 21 22 22 22 21 21 21 21 21 21 21 21 21 21 21 22 24 25 25 25 25 27 27 28 28 28 28 28 29 28 29
23 23 23 22 21 21 22 22 23 22 21 21 21 22 22 22 22 21 21 21 21 20 20 21 21 21 21 22 23 25 26 27 27 27 27 27 27 27 27 28 28 28 28 29
23 23 22 21 21 21 21 21 21 21 21 21 21 22 23 23 23 22 21 21 21 21 21 22 22 22 22 24 25 25 26 27 28 27 27 27 27 27 28 29 29 28 29 29
23 22 22 21 21 20 20 20 20 21 21 22 22 21 21 22 22 22 22 22 22 21 22 22 22 23 23 24 25 26 27 27 27 27 27 27 27 27 28 28 29 29 28 29
23 22 21 20 20 20 19 19 20 21 22 22 23 22 22 22 22 22 22 22 22 22 22 22 22 22 23 23 25 26 26 25 26 25 25 26 26 26 27 27 27 28 28 27
22 22 20 20 20 19 19 19 20 21 22 22 23 23 23 23 23 23 23 23 22 22 22 23 23 23 23 23 23 24 24 24 24 24 23 24 25 25 26 26 26 27 27 27
20 20 21 21 20 20 20 20 21 21 21 22 23 23 24 24 24 24 23 23 23 23 23 23 23 23 23 23 23 23 24 24 24 24 23 23 23 23 23 23 23 24 24 24
20 20 21 21 21 21 21 21 21 21 22 22 23 23 24 24 24 25 23 23 23 23 23 23 23 23 23 23 24 24 24 24 24 24 23 23 23 23 23 23 23 24 24 24
20 20 21 20 21 22 22 21 21 22 22 23 23 23 24 24 25 24 23 23 23 24 23 23 23 23 23 23 24 24 24 23 23 23 23 23 23 23 23 23 24 24 24 24
21 21 21 20 21 21 22 22 22 22 23 24 24 24 24 24 24 24 23 23 23 24 24 24 24 24 24 24 24 24 24 24 24 23 23 23 24 23 23 23 24 24 24 24
21 21 21 21 21 21 21 21 22 23 24 24 24 24 24 24 24 24 23 23 23 24 24 24 23 23 24 24 24 23 23 23 23 23 23 23 23 23 23 23 23 24 24 24
21 21 21 21 22 22 23 23 23 23 24 24 23 24 24 24 24 24 24 24 24 24 25 24 24 24 25 24 24 23 24 23 23 22 22 22 22 22 22 23 23 24 24 24
21 21 21 21 21 22 23 23 24 24 24 24 24 23 24 23 23 24 24 24 24 25 25 25 25 25 25 25 24 24 24 24 24 23 23 23 23 23 23 23 24 25 25 25
22 22 22 22 22 23 23 24 24 24 24 24 24 24 24 24 24 23 24 23 23 24 24 25 25 25 24 25 25 25 25 25 25 24 23 23 24 24 25 25 25 26 26 27
23 23 22 22 23 23 24 25 25 25 25 25 24 25 25 25 25 24 24 24 23 23 23 23 24 24 24 24 25 25 26 26 25 24 24 24 25 25 26 26 26 27 27 26
23 23 23 23 24 24 25 25 26 26 26 26 26 26 25 25 25 25 25 24 24 24 23 23 23 23 23 24 24 24 24 24 24 23 23 24 24 25 25 26 25 26 26 26
23 24 24 25 25 25 25 26 26 27 27 26 26 26 26 26 26 26 26 25 24 24 23 22 22 23 23 24 23 23 23 23 23 24 23 24 24 25 24 24 25 25 26 27
24 24 25 25 26 26 26 26 27 27 27 27 26 26 25 25 25 25 25 25 25 24 23 22 22 22 22 23 23 23 22 22 23 24 24 24 24 24 24 24 25 26 26 27
24 25 25 26 26 26 26 27 27 26 26 26 26 26 25 25 25 24 24 24 23 23 23 23 22 22 22 22 22 22 22 22 23 23 24 25 25 25 25 26 26 26 26 26
25 25 26 26 26 26 27 27 27 27 26 26 25 25 25 25 24 24 23 23 22 22 23 23 23 23 23 22 22 23 23 23 23 24 24 25 25 26 26 26 26 26 26 25
26 26 26 26 27 27 27 27 27 27 27 26 25 25 25 24 24 23 22 22 22 22 22 23 23 23 23 23 23 23 23 24 24 24 25 25 26 26 26 26 26 26 26 26
27 27 26 26 26 27 27 27 27 27 27 26 25 24 24 23 23 23 22 22 22 22 22 22 23 24 24 24 24 24 25 24 25 25 25 26 27 27 27 26 25 25 26 26
27 27 27 27 27 27 27 27 27 27 26 25 24 23 23 22 22 22 22 22 21 21 21 21 22 23 23 24 24 24 24 24 25 25 25 26 27 27 26 25 25 25 25 25
27 28 28 28 27 27 27 27 26 26 25 24 23 23 22 22 22 21 21 21 21 21 21 21 22 22 23 23 24 23 24 24 24 25 25 26 26 25 24 24 24 23 23 23
27 27 27 27 26 26 27 26 25 24 23 23 22 22 22 22 22 21 21 21 21 21 21 22 22 23 23 23 24 24 23 23 24 24 24 24 23 23 23 23 22 22 23 22
Wind_Direction
285 284 284 282 281 283 283 285 288 291 291 291 289 288 286 285 282 282 281 283 285 284 281 280 280 281 281 277 272 267 268 269 269 269 270 269 265 261 259 258 259 258 256 257
286 284 282 281 282 283 283 284 285 288 289 290 288 286 288 287 285 283 286 286 285 284 283 282 281 282 281 275 271 270 272 272 271 270 272 270 268 262 261 262 260 257 257 258
286 286 284 283 286 286 285 284 284 287 288 287 286 286 288 288 288 289 288 288 286 285 283 282 280 279 279 276 275 274 274 275 273 273 273 272 270 267 264 262 260 258 256 256
285 287 287 289 288 288 285 284 285 286 285 286 287 286 288 287 288 290 289 287 285 285 284 285 285 282 279 275 276 278 277 277 275 275 272 271 271 269 266 264 261 259 257 257
286 288 288 289 291 291 288 286 286 285 284 286 287 287 287 288 289 290 289 288 286 285 285 287 285 283 279 278 279 280 279 278 277 274 272 272 272 272 269 265 262 260 260 259
286 288 289 291 292 291 290 288 286 284 283 285 287 287 286 287 288 289 288 288 287 288 288 289 288 285 281 280 281 282 282 280 277 276 274 272 271 271 269 266 265 262 263 264
283 285 287 290 291 289 288 290 289 287 286 286 287 286 286 286 287 289 289 288 289 289 288 288 287 283 282 282 283 284 284 280 278 276 274 273 272 270 268 266 266 265 264 265
283 282 284 287 288 287 287 288 290 291 290 288 287 286 285 286 286 287 288 287 288 288 288 288 286 283 282 282 283 285 284 281 278 277 277 276 275 272 268 266 265 265 263 264
283 282 282 282 284 285 284 286 289 291 292 291 288 285 284 285 286 286 287 286 288 289 289 289 287 285 284 284 284 288 287 284 281 280 280 279 278 274 269 267 265 264 264 265
283 283 282 281 281 283 284 284 287 289 290 291 291 290 287 287 287 287 286 285 287 288 288 287 286 285 285 287 288 288 288 285 283 283 281 278 277 274 270 267 265 266 267 267
284 284 283 281 281 282 285 286 286 288 289 291 293 294 293 291 289 286 283 284 285 285 286 286 285 284 285 287 286 286 287 285 283 282 281 279 277 276 272 268 265 265 265 265
282 283 283 283 284 285 286 287 287 289 289 291 294 294 294 294 290 286 283 284 285 285 284 284 283 282 284 287 287 286 283 282 282 282 281 279 279 278 273 270 268 267 267 266
280 282 283 282 283 286 289 290 290 290 290 292 292 292 295 296 292 287 283 284 285 284 284 283 282 282 283 286 287 286 284 283 283 282 281 280 280 280 278 275 272 270 268 267
282 282 283 285 285 287 290 292 292 292 293 294 294 293 296 295 292 288 283 284 284 283 283 283 283 284 284 285 286 285 284 282 281 281 281 280 280 279 278 276 274 272 270 268
284 282 283 285 286 289 291 293 294 294 295 295 295 296 298 299 296 291 286 284 284 283 282 282 283 283 284 284 285 285 284 283 281 281 280 279 279 279 279 277 274 272 271 269
283 282 283 283 286 290 292 294 295 294 294 295 295 295 298 299 299 295 290 286 286 285 283 283 283 282 283 283 284 284 284 284 282 281 281 280 279 280 281 280 277 275 272 270
283 282 282 284 288 291 293 294 295 294 293 293 294 295 296 297 297 295 291 287 287 286 284 283 284 284 284 284 285 284 284 283 283 282 281 280 280 280 282 281 280 276 273 271
283 282 282 284 288 291 294 296 295 294 293 293 293 293 294 293 293 292 290 288 287 286 284 283 284 284 284 283 284 285 284 283 282 281 282 282 282 282 281 281 279 276 274 272
283 282 282 285 288 290 292 295 295 294 294 294 294 293 291 290 289 288 288 286 287 286 283 283 284 285 284 283 284 285 284 283 281 280 281 283 285 285 283 281 279 277 277 274
283 282 283 285 288 291 292 294 295 295 294 292 292 292 292 291 291 289 288 286 285 283 281 282 285 287 286 284 284 284 284 284 283 282 282 283 284 284 284 283 282 280 277 276
284 284 284 286 288 290 292 294 294 294 295 294 291 289 290 291 291 291 289 286 283 281 281 282 283 285 286 286 286 284 284 284 285 286 285 284 284 284 283 283 282 280 278 276
284 285 286 287 287 288 290 293 293 294 294 293 290 289 289 290 291 291 290 287 284 281 281 281 281 282 283 284 285 284 284 285 286 286 285 285 284 284 283 283 282 280 279 277
285 286 286 287 287 287 289 291 291 292 293 292 290 288 289 290 290 289 288 288 286 283 282 281 281 282 282 283 284 285 284 285 286 285 285 284 284 285 284 283 281 279 278 277
284 286 287 288 288 288 289 290 290 290 290 290 290 289 288 289 289 288 287 287 286 283 282 282 283 282 282 282 283 283 283 284 285 286 285 285 285 285 284 283 281 280 278 277
284 286 287 288 289 289 290 290 289 289 288 288 288 288 288 289 289 288 287 287 286 285 285 286 286 285 285 285 286 286 285 285 286 287 286 286 286 285 284 283 281 280 279 277
284 286 288 288 288 289 290 290 288 287 287 286 286 286 287 288 288 287 286 285 285 285 285 286 287 288 288 287 287 288 287 286 287 289 289 288 287 286 284 283 282 281 280 278
283 285 287 287 287 288 289 289 287 286 286 285 284 285 286 286 285 285 285 286 287 286 286 287 288 289 289 288 289 289 289 289 289 290 291 290 288 286 285 284 284 283 281 278
Height
5650 5648 5646 5645 5644 5642 5640 5638 5636 5635 5633 5631 5628 5625 5623 5621 5619 5617 5616 5614 5612 5611 5609 5608 5606 5605 5603 5602 5601 5600 5600 5600 5599 5599 5598 5598 5597 5597 5597 5598 5598 5598 5599 5601
5644 5642 5640 5638 5637 5636 5634 5632 5630 5628 5627 5625 5622 5620 5618 5616 5613 5612 5610 5609 5607 5605 5603 5602 5600 5599 5597 5596 5595 5594 5593 5593 5592 5592 5591 5590 5589 5589 5590 5590 5590 5591 5592 5593
5638 5635 5633 5632 5632 5630 5628 5626 5624 5622 5622 5619 5617 5614 5613 5610 5608 5606 5605 5603 5601 5599 5598 5596 5594 5593 5592 5590 5589 5588 5587 5586 5585 5584 5584 5583 5582 5582 5582 5582 5582 5583 5584 5585
5630 5629 5627 5629 5625 5623 5621 5620 5618 5616 5615 5612 5610 5608 5607 5604 5602 5601 5599 5598 5596 5594 5592 5590 5589 5588 5586 5585 5584 5582 5581 5580 5579 5577 5576 5576 5575 5574 5574 5575 5575 5575 5576 5577
5623 5621 5620 5621 5619 5616 5614 5614 5612 5610 5608 5606 5604 5603 5601 5599 5597 5595 5594 5592 5590 5588 5586 5585 5583 5582 5580 5579 5578 5576 5575 5573 5572 5571 5570 5569 5567 5566 5566 5567 5567 5568 5569 5570
5616 5614 5613 5616 5613 5609 5609 5607 5606 5603 5602 5600 5598 5597 5596 5593 5591 5590 5588 5586 5584 5582 5581 5579 5577 5576 5575 5573 5572 5570 5568 5567 5565 5564 5563 5561 5560 5559 5559 5559 5560 5561 5561 5562
5609 5607 5607 5608 5606 5604 5603 5603 5600 5597 5595 5593 5592 5591 5589 5587 5585 5584 5582 5580 5578 5576 5575 5573 5572 5570 5569 5567 5566 5564 5562 5560 5559 5557 5556 5555 5553 5553 5552 5552 5552 5553 5554 5555
5603 5601 5603 5601 5599 5598 5597 5595 5593 5591 5589 5587 5586 5584 5582 5580 5579 5577 5576 5574 5572 5571 5569 5567 5566 5564 5562 5561 5560 5558 5556 5554 5552 5551 5549 5548 5547 5546 5545 5545 5545 5546 5546 5547
5597 5598 5596 5594 5592 5591 5589 5588 5587 5585 5583 5581 5579 5577 5576 5574 5572 5571 5569 5567 5566 5564 5563 5561 5559 5557 5556 5554 5553 5551 5549 5547 5546 5544 5542 5541 5540 5539 5539 5539 5539 5539 5539 5539
5590 5590 5588 5587 5585 5584 5583 5581 5580 5578 5576 5574 5573 5571 5569 5567 5565 5564 5562 5561 5559 5558 5556 5555 5553 5551 5550 5548 5546 5544 5542 5540 5539 5537 5535 5534 5533 5532 5532 5532 5532 5532 5532 5532
5583 5583 5582 5581 5579 5578 5576 5575 5573 5572 5570 5568 5566 5564 5562 5560 5558 5556 5555 5554 5552 5551 5550 5548 5547 5545 5543 5541 5539 5537 5535 5533 5532 5530 5529 5527 5526 5525 5525 5525 5524 5524 5524 5525
5577 5577 5575 5575 5573 5571 5570 5568 5567 5565 5563 5561 5559 5557 5555 5552 5550 5549 5547 5546 5545 5544 5542 5541 5540 5538 5536 5534 5532 5530 5528 5526 5525 5523 5522 5520 5520 5519 5518 5518 5517 5517 5517 5517
5570 5569 5568 5567 5566 5564 5563 5561 5560 5558 5556 5554 5552 5550 5547 5545 5543 5542 5540 5539 5538 5536 5535 5534 5532 5531 5529 5527 5524 5522 5521 5519 5518 5516 5515 5514 5513 5512 5512 5511 5510 5510 5510 5510
5563 5562 5561 5560 5559 5558 5556 5554 5553 5551 5549 5547 5544 5542 5540 5538 5536 5534 5533 5532 5530 5529 5527 5526 5525 5523 5521 5519 5517 5515 5513 5512 5511 5509 5508 5507 5506 5505 5505 5504 5504 5503 5503 5503
5556 5555 5554 5553 5552 5551 5549 5547 5545 5543 5541 5539 5537 5535 5533 5531 5529 5527 5525 5524 5522 5521 5520 5518 5517 5515 5513 5511 5509 5508 5506 5505 5503 5502 5501 5500 5499 5499 5498 5497 5496 5496 5496 5495
5549 5548 5547 5546 5545 5544 5542 5540 5538 5536 5534 5532 5530 5528 5526 5523 5521 5519 5518 5516 5515 5513 5512 5510 5509 5507 5506 5504 5502 5500 5499 5497 5496 5495 5494 5493 5492 5492 5491 5490 5489 5489 5488 5488
5541 5541 5540 5539 5538 5536 5535 5532 5530 5528 5526 5524 5522 5520 5518 5516 5514 5512 5510 5508 5507 5505 5504 5502 5501 5499 5498 5496 5494 5493 5491 5490 5489 5488 5487 5486 5485 5484 5483 5482 5481 5481 5480 5479
5534 5533 5533 5532 5530 5529 5527 5525 5522 5520 5518 5516 5514 5512 5510 5508 5506 5504 5502 5500 5499 5497 5496 5495 5493 5492 5490 5489 5487 5485 5484 5482 5481 5480 5479 5478 5477 5476 5475 5474 5473 5473 5472 5471
5526 5526 5525 5524 5522 5521 5519 5517 5514 5512 5510 5508 5506 5504 5501 5499 5498 5496 5494 5492 5491 5489 5488 5487 5486 5484 5483 5481 5480 5478 5476 5475 5474 5473 5472 5471 5470 5469 5467 5466 5465 5465 5464 5463
5518 5518 5517 5516 5514 5513 5511 5508 5506 5504 5501 5499 5497 5495 5493 5491 5489 5488 5486 5484 5483 5482 5481 5480 5478 5477 5476 5474 5472 5471 5469 5468 5467 5466 5465 5464 5462 5461 5460 5458 5457 5456 5455 5455
5510 5509 5508 5507 5506 5504 5502 5500 5498 5495 5493 5491 5489 5487 5485 5483 5481 5480 5478 5477 5475 5474 5473 5472 5471 5470 5468 5467 5465 5464 5463 5461 5460 5459 5457 5456 5454 5453 5451 5450 5449 5448 5447 5446
5502 5501 5500 5498 5497 5495 5493 5491 5489 5487 5485 5483 5481 5479 5477 5475 5474 5472 5470 5469 5467 5466 5466 5465 5464 5462 5461 5460 5458 5457 5455 5454 5453 5451 5450 5448 5446 5445 5443 5442 5440 5439 5438 5437
5493 5492 5491 5490 5488 5487 5485 5483 5481 5479 5477 5475 5473 5471 5469 5468 5466 5465 5463 5462 5460 5459 5458 5457 5456 5454 5453 5452 5451 5449 5448 5446 5445 5443 5441 5440 5438 5436 5435 5433 5432 5431 5430 5429
5485 5483 5482 5481 5479 5478 5476 5474 5472 5470 5468 5467 5465 5463 5462 5460 5459 5457 5456 5454 5453 5452 5450 5449 5448 5446 5445 5444 5442 5441 5439 5438 5436 5435 5433 5432 5430 5428 5426 5425 5423 5422 5421 5420
5476 5475 5473 5472 5471 5469 5467 5466 5464 5462 5460 5459 5457 5455 5454 5453 5451 5450 5449 5447 5446 5444 5443 5442 5440 5439 5437 5436 5434 5433 5431 5430 5428 5426 5425 5423 5421 5419 5418 5416 5415 5414 5413 5412
5467 5466 5464 5463 5462 5460 5459 5457 5455 5453 5452 5450 5449 5448 5446 5445 5444 5443 5441 5440 5439 5437 5436 5434 5433 5431 5430 5428 5426 5425 5423 5421 5420 5418 5416 5414 5412 5411 5409 5408 5406 5405 5404 5403
5457 5456 5455 5454 5452 5451 5449 5448 5446 5445 5444 5442 5441 5440 5438 5437 5436 5435 5434 5433 5431 5430 5429 5427 5425 5424 5422 5420 5419 5417 5415 5413 5412 5410 5408 5406 5404 5402 5401 5400 5399 5397 5396 5395